TimeEDT,TemperatureF,Dew PointF,Humidity,Sea Level PressureIn,VisibilityMPH,Wind Direction,Wind SpeedMPH,Gust SpeedMPH,PrecipitationIn,Events,Conditions,WindDirDegrees,DateUTC
12:51 AM,37.4,28.4,70,30.40,10.0,East,5.8,-,N/A,,Clear,100,2012-10-13 04:51:00
1:51 AM,35.6,26.6,70,30.40,10.0,East,5.8,-,N/A,,Clear,90,2012-10-13 05:51:00
2:51 AM,35.6,26.6,70,30.38,10.0,East,8.1,-,N/A,,Clear,90,2012-10-13 06:51:00
3:51 AM,36.0,26.1,67,30.37,10.0,SE,6.9,-,N/A,,Clear,130,2012-10-13 07:51:00
4:51 AM,36.0,25.0,64,30.38,10.0,SE,8.1,-,N/A,,Clear,140,2012-10-13 08:51:00
5:51 AM,36.0,25.0,64,30.39,10.0,SE,6.9,-,N/A,,Clear,130,2012-10-13 09:51:00
6:51 AM,35.6,24.8,65,30.35,10.0,SE,8.1,-,N/A,,Clear,130,2012-10-13 10:51:00
7:51 AM,35.1,25.0,67,30.37,8.0,SE,9.2,-,N/A,,Scattered Clouds,130,2012-10-13 11:51:00
8:51 AM,39.0,27.0,62,30.36,8.0,SSE,8.1,-,N/A,,Mostly Cloudy,150,2012-10-13 12:51:00
9:51 AM,45.0,28.9,53,30.36,9.0,SSE,9.2,-,N/A,,Mostly Cloudy,160,2012-10-13 13:51:00
10:51 AM,50.0,30.2,47,30.31,8.0,South,10.4,-,N/A,,Scattered Clouds,180,2012-10-13 14:51:00
11:51 AM,55.0,34.0,45,30.30,8.0,SSE,13.8,-,N/A,,Mostly Cloudy,160,2012-10-13 15:51:00
12:51 PM,57.0,36.0,45,30.27,8.0,South,8.1,-,N/A,,Mostly Cloudy,170,2012-10-13 16:51:00
1:51 PM,60.8,39.2,45,30.22,8.0,SSE,6.9,-,N/A,,Mostly Cloudy,160,2012-10-13 17:51:00
2:51 PM,63.0,41.0,45,30.19,8.0,SSE,9.2,-,N/A,,Mostly Cloudy,160,2012-10-13 18:51:00
3:51 PM,64.0,42.1,45,30.16,10.0,South,11.5,-,N/A,,Overcast,180,2012-10-13 19:51:00
4:51 PM,64.0,42.1,45,30.13,10.0,South,12.7,-,N/A,,Overcast,190,2012-10-13 20:51:00
5:51 PM,64.0,41.0,43,30.10,10.0,South,16.1,-,N/A,,Overcast,190,2012-10-13 21:51:00
6:51 PM,63.0,41.0,45,30.09,10.0,South,15.0,-,N/A,,Overcast,190,2012-10-13 22:51:00
7:51 PM,64.0,42.1,45,30.08,10.0,South,17.3,-,N/A,,Overcast,190,2012-10-13 23:51:00
8:51 PM,61.0,46.9,60,30.07,6.0,South,16.1,-,0.00,Rain,Light Rain,190,2012-10-14 00:51:00
9:51 PM,60.8,48.2,63,30.03,10.0,South,15.0,-,N/A,Rain,Light Rain,190,2012-10-14 01:51:00
10:51 PM,62.1,48.9,62,30.02,9.0,SSW,17.3,-,0.00,,Overcast,200,2012-10-14 02:51:00
11:51 PM,62.6,48.2,59,30.03,9.0,SSW,12.7,24.2,N/A,,Mostly Cloudy,210,2012-10-14 03:51:00